Regional Weather Roundup
Issued by NWS Wakefield, VA

Home | Current Version | Previous Version | Graphics & Text | Print | Product List | Glossary On
Versions: 1 2 3 4 5 6 7 8 9 10 11 12 13 14 15 16 17 18 19 20 21 22 23 24 25 26 27 28
000
ASUS41 KAKQ 170310
RWRAKQ

REGIONAL WEATHER ROUNDUP
NATIONAL WEATHER SERVICE WAKEFIELD VA
1100 PM EDT WED APR 16 2014

Note: "fair" indicates few or no clouds below 12,000 feet with no
significant weather and/or obstructions to visibility. * = Denotes
station may not report precipitation (e.g., rain,snow,etc.),
thunder or fog.

VAZ042-051-052>054-056-170400-
NORTHERN VIRGINIA

CITY           SKY/WX    TMP DP  RH WIND       PRES   REMARKS
WASH NATIONAL  CLEAR     44  21  40 E7        30.54R
DULLES         CLEAR     39  21  48 NE5       30.52R
FORT BELVOIR   CLEAR     35  26  69 CALM      30.54R
QUANTICO       CLEAR     44  26  49 E9        30.54R
FREDERICKSBRG* CLEAR     39  28  65 CALM      30.52S
STAFFORD*      CLEAR     41  27  57 CALM      30.56S
WARRENTON      CLEAR     34  31  89 CALM      30.51R
CULPEPER*      CLEAR     36  27  69 CALM      30.52R
MANASSAS*      CLEAR     41  21  45 CALM      30.53R
LEESBURG*      CLEAR     41  23  48 NE3       30.53S
WINCHESTER     CLEAR     36  21  55 E3        30.49S
$$

VAZ048-049-060>072-079>083-170400-
CENTRAL AND SOUTH CENTRAL VIRGINIA...AND NORTH CENTRAL NORTH CAROLINA

CITY           SKY/WX    TMP DP  RH WIND       PRES   REMARKS
RICHMOND       CLEAR     41  23  48 NE3       30.51R
CHESTERFIELD*  CLEAR     41  16  36 CALM      30.51R
HANOVER        CLEAR     34  28  79 CALM      30.52R
TAPPAHANNOCK*  CLEAR     35  23  62 CALM      30.51F
CHARLOTTSVILLE CLEAR     38  18  44 N3        30.49R
ORANGE*        CLEAR     34  30  86 CALM      30.52R
LOUISA*        CLEAR     32  21  64 NE3       30.49R
FARMVILLE*     CLEAR     37  25  60 N5        30.47R
SOUTH HILL*    CLEAR     39  28  65 CALM      30.53R
ROANOKE RAPIDS CLEAR     43  32  65 E6        30.49R
RALEIGH        CLEAR     42  28  57 E8        30.44S
$$

VAZ088>098-170400-
SOUTHEAST VIRGINIA

CITY           SKY/WX    TMP DP  RH WIND       PRES   REMARKS
NORFOLK        CLEAR     43  30  60 E8        30.50S
VIRGINIA BEACH CLEAR     42  29  59 NE8       30.49S
NORFOLK NAVAL  CLEAR     43  31  62 E8        30.51S
WEST POINT*    CLEAR     37  28  68 CALM      30.52F
NEWPORT NEWS   CLEAR     41  33  73 CALM      30.51R
LANGLEY AFB    CLEAR     42  33  70 E8        30.51S
FORT EUSTIS    CLEAR     40  35  81 CALM      30.49S
WILLIAMSBURG*  CLEAR     39  34  81 CALM      30.51F
FRANKLIN*      CLEAR     39  34  81 CALM      30.51R
WAKEFIELD      CLEAR     35  29  78 CALM      30.51R
$$

VAZ020-022-025-037-045-170400-
WESTERN AND SOUTHWEST VIRGINIA

CITY           SKY/WX    TMP DP  RH WIND       PRES   REMARKS
STAUNTON*      CLEAR     32  26  77 CALM      30.48R
HOT SPRINGS VA CLEAR     32  19  59 E8        30.40R
LYNCHBURG      CLEAR     42  20  41 NE5       30.48R
DANVILLE       CLEAR     37  27  67 E3        30.46R
MARTINSVILLE   CLEAR     34  31  89 CALM      30.46S
ROANOKE        CLEAR     42  19  39 E9        30.46R
BLACKSBURG     CLEAR     39  25  56 SE7       30.43R
DUBLIN*        CLEAR     37  22  55 CALM      30.41R
MARION*        CLEAR     39  19  43 E9        30.39R
HILLSVILLE*    CLEAR     36  18  48 SE3       30.41R
RICHLANDS*     CLEAR     46  19  33 SE13G24   30.29R
WISE*          CLEAR     45  14  29 S8        30.28R
ABINGDON*      CLEAR     45  19  35 E10       30.31R
$$

MDZ021>025-VAZ099-100-170400-
SOUTHERN MARYLAND AND THE DELMARVA PENINSULA

CITY           SKY/WX    TMP DP  RH WIND       PRES   REMARKS
PATUXENT RIVER CLEAR     40  26  57 NE8       30.52R
BAY BRIDGE APT CLEAR     43  21  42 NE3       30.53R
LEONARDTOWN    CLEAR     36  27  69 CALM      30.54R
DOVER          CLEAR     38  33  82 S3        30.53R
GEORGETOWN     CLEAR     38  29  70 CALM      30.53S
EASTON         CLEAR     40  29  65 E5        30.56R
CAMBRIDGE      CLEAR     37  30  75 NE3       30.52R
SALISBURY      CLEAR     38  30  73 CALM      30.52S
OCEAN CITY     CLEAR     42  29  59 E7        30.52R
WALLOPS ISLAND CLEAR     42  32  67 E8        30.52R
ACCOMACK*      NOT AVBL
$$

NCZ012>017-030>032-170400-
EASTERN NORTH CAROLINA

CITY           SKY/WX    TMP DP  RH WIND       PRES   REMARKS
ELIZABETH CITY CLEAR     42  30  62 E14       30.49F
AHOSKIE*       CLEAR     39  31  71 CALM      30.50S
EDENTON*       CLEAR     40  33  76 CALM      30.49S
CURRITUCK*     CLEAR     43  28  55 NE10G21   30.50S
KILL DEVIL HLS PTCLDY    42  32  68 N12G18    30.46S
MANTEO         PTCLDY    42  33  71 NE14G21   30.47F
CAPE HATTERAS  CLEAR     45  38  76 NE14G28   30.41S
GOLDSBORO      CLEAR     41  33  73 E8        30.44R
WASHINGTON     CLEAR     40  33  74 E5        30.48S
GREENVILLE     CLEAR     39  30  70 E6        30.47S
NEW BERN       CLEAR     43  30  60 NE9       30.47S
WILMINGTON     CLEAR     45  33  63 NE10      30.42R
$$

VAZ048-170400-
ELSEWHERE

CITY           SKY/WX    TMP DP  RH WIND       PRES   REMARKS
HARRISBURG PA  PTCLDY    41  17  38 E5        30.53R
BALTIMORE      CLEAR     39  23  52 CALM      30.51S
ANNAPOLIS      CLEAR     44  26  49 N3        30.52S
ANDREWS AFB    CLEAR     37  24  59 E1        30.52R
WILMINGTON DE  CLEAR     39  21  48 N7        30.54R
PHILADELPHIA   CLEAR     41  17  38 NE7       30.55R
WILDWOOD NJ*   CLEAR     41  27  56 E5        30.54S
ATLANTIC CITY  CLEAR     34  26  72 NW3       30.53R
HENDERSON NC   CLEAR     37  29  72 CALM      30.45S
GREENSBORO     CLEAR     41  25  53 E6        30.42R
ROCKY MOUNT      N/A    N/A N/A N/A MISG      30.47R
FAYETTEVILLE   CLEAR     43  32  65 NE6       30.42S
CHARLOTTE      CLEAR     49  27  42 E7        30.41R
$$

VAZ100-170400-
MARINE

STATION/POSITION TIME  TEMP    WIND        PRES    WAVE   SWELL
                       AIR SEA DIR/SP/G            HT/PER HT/PER
                 (UTC) (F)     (DEG/KT/KT) (MB)    (FT/S) (FT/S)
44066 TX TWR #4  0300   42 45   50/ 10/ 12 1033.3R   5/10   5/10
CAPE MAY NJ      0300   42 54   80/  3/  5 1033.6S
LEWES DE         0300   43 50  100/  7/  9 1033.0S
15NM E FENWICK I 0300   44 45              1033.1R   5/11
OCEAN-CITY-INLET 0300   43 45   70/  7/  9 1033.2S
WACHAPREAGUE VA  0300   44 56   60/ 14/ 17 1032.8S
THOMAS POINT MD  0300   46 52   40/ 12/ 15 1034.0R
GOOSES REEF MD   0300   46      60/ 10/ 12 1034.3R
COVE POINT MD    0300   45      60/ 10/ 12 1033.4R
SOLOMONS ISLAND  0300      53                N/A
BISHOPS HEAD MD  0300   45 51   40/  7/ 12 1033.1R
PINEY POINT MD   0300           50/  4/  5   N/A
POTOMAC MD       0300   46      40/ 12/ 14 1032.5F
CAMBRIDGE MD     0300   44 56   20/  8/  9 1033.1R
LEWISETTA VA     0300   45 54   30/  8/ 12 1033.0S
RAPPAHANNOCK LGT 0300           60/ 12/ 14 1033.5R
STINGRAY PT      0300   45     110/ 10/ 12 1033.1R
YORK RVR RNG VA  0300   45      90/ 11/ 12 1032.3S
YORKTOWN VA      0300   45 55  100/  6/  8 1032.8S
JAMESTOWN VA     0300   42      60/  2/  2   N/A
DOMINION TERM VA 0300   45      60/  5/  9 1032.8S
KIPTOPEKE VA     0300      54   80/  6/  8   N/A
CHES BAY BRIDGE  0300   44 51   50/ 14/ 18 1032.6R
CAPE HENRY VA    0300           60/ 16/ 18   N/A
CHESAPEAKE LGHT  0200   43      60/ 21/ 22 1032.8R
WILLOUBY STN VA  0300   44      80/ 11/ 13 1031.9R
S CRANEY ISL VA  0300           50/  8/ 10 1032.9F
CAPE HENRY BUOY  0300      45                N/A     5/ 9   2/11
1ST LANDING BUOY 0300      46                N/A     5/10   3/10
64NM E OF VA BCH 0300   47 65   40/ 19/ 27 1031.2R  10/ 8
DUCK PIER NC     0300   43 48   50/ 21/ 23 1031.4S
44100 DUCK FRF   0300      47                N/A     7/ 8   2/11
44056 DUCK FRF   0300      47                N/A     7/ 8   2/11
OREGON INLET NC  0300   43 53  360/ 15/ 20 1030.9F
HATTERAS NC      0300   47 58   10/ 15/ 25 1029.7F
CAPE LOOKOUT NC  0200   46      10/ 18/ 23 1029.4F
FRYING PAN SHLS  0300   53 65   50/ 25/ 31 1027.3S   9/ 7   2/10
$$



USA.gov is the U.S. government's official web portal to all federal, state and local government web resources and services.